Ital Oriente — A8LN2 — position and weather

sailwx.info

Track history (hours):
 
Tides and Currents Weather Stations Pressure Air Temp Water Temp Dewpoint Dewpoint Depression Visibility Wind Speed Wind Dir Waves Ship Positions

Ital Oriente

Last reported at 2014-Sep-19 19:33 UTC. Time now 2014-Sep-19 19:52 UTC.
Position N 37°52' E 023°31'.

Length 222 m; draft 7.5 m.

Type: Cargo ship. MMSI: 636091278.

Date/timePositionNaut miles runAvg speedWind from/ knotsBaromVisibWave heightAir tempDewpointWater temp
2014-Sep-19 19:33N 37°52' E 023°31'0 0.0
2014-Sep-19 18:33N 37°52' E 023°31'0 0.0
2014-Sep-19 17:33N 37°52' E 023°31'0 0.0
2014-Sep-19 16:33N 37°52' E 023°31'0 0.0
2014-Sep-19 15:33N 37°52' E 023°31'0 0.0
2014-Sep-19 14:33N 37°52' E 023°31'0 0.1
2014-Sep-19 13:33N 37°52' E 023°32'0 0.1
2014-Sep-19 12:33N 37°52' E 023°32'0 0.1
2014-Sep-19 11:33N 37°52' E 023°31'0 0.0
2014-Sep-19 10:33N 37°52' E 023°31'0 0.1
2014-Sep-19 09:33N 37°52' E 023°32'0 0.0
2014-Sep-19 08:33N 37°52' E 023°32'0 0.0
2014-Sep-19 07:33N 37°52' E 023°32'0 0.0
2014-Sep-19 06:33N 37°52' E 023°32'3 2.7
2014-Sep-19 05:34N 37°52' E 023°35'5 4.7
2014-Sep-19 04:31N 37°57' E 023°35'0 0.0
2014-Sep-19 03:31N 37°57' E 023°35'0 0.0
2014-Sep-19 02:31N 37°57' E 023°35'0 0.0
2014-Sep-19 01:31N 37°57' E 023°35'0 0.0
2014-Sep-19 00:31N 37°57' E 023°35'0 0.0
2014-Sep-18 23:31N 37°57' E 023°35'0 0.0
2014-Sep-18 22:31N 37°57' E 023°35'0 0.0
2014-Sep-18 21:31N 37°57' E 023°35'0 0.0
2014-Sep-18 20:31N 37°57' E 023°35'0 0.0
2014-Sep-18 19:31N 37°57' E 023°35'0 0.0
2014-Sep-18 18:31N 37°57' E 023°35'0 0.0
2014-Sep-18 17:31N 37°57' E 023°35'0 0.0
2014-Sep-18 16:31N 37°57' E 023°35'0 0.0
2014-Sep-18 15:31N 37°57' E 023°35'0 0.0
2014-Sep-18 14:34N 37°57' E 023°35'5 5.3
2014-Sep-18 13:34N 37°52' E 023°35'4 3.6
2014-Sep-18 12:33N 37°51' E 023°30'0 0.0
2014-Sep-18 11:33N 37°51' E 023°30'0 0.0
2014-Sep-18 10:33N 37°51' E 023°30'0 0.1
2014-Sep-18 09:33N 37°51' E 023°30'0 0.1
2014-Sep-18 08:33N 37°51' E 023°30'0 0.0
2014-Sep-18 07:33N 37°51' E 023°30'0 0.0
2014-Sep-18 06:33N 37°51' E 023°30'0 0.0
2014-Sep-18 05:33N 37°51' E 023°30'0 0.0
2014-Sep-18 04:33N 37°51' E 023°30'0 0.0
2014-Sep-18 03:33N 37°51' E 023°30'0 0.0
2014-Sep-18 02:33N 37°51' E 023°30'0 0.0
2014-Sep-18 01:33N 37°51' E 023°30'0 0.0
2014-Sep-18 00:33N 37°51' E 023°30'0 0.0
2014-Sep-17 23:33N 37°51' E 023°30'0 0.0
2014-Sep-17 22:33N 37°51' E 023°30'0 0.0
2014-Sep-17 21:33N 37°51' E 023°30'0 0.1
2014-Sep-17 20:33N 37°51' E 023°30'0 0.0
2014-Sep-17 19:33N 37°51' E 023°30'0 0.0
2014-Sep-17 18:33N 37°51' E 023°30'2 2.4
2014-Sep-17 17:33N 37°51' E 023°33'9 9.4
2014-Sep-17 16:33N 37°45' E 023°43'1111.0
2014-Sep-17 15:33N 37°35' E 023°48'4611.3
2014-Sep-17 11:28N 36°51' E 023°33'  
2014-Sep-12 09:33N 36°25' E 022°57'1310.9
2014-Sep-12 08:24N 36°23' E 023°12'16 8.7
2014-Sep-12 06:31N 36°33' E 023°29'1916.2
2014-Sep-12 05:20N 36°51' E 023°35'911.6
2014-Sep-12 04:33N 36°59' E 023°41'1111.2
2014-Sep-12 03:33N 37°08' E 023°49'1111.3
2014-Sep-12 02:33N 37°18' E 023°56'1111.1
2014-Sep-12 01:33N 37°27' E 024°04'2210.8
2014-Sep-11 23:33N 37°44' E 024°21'1110.8
2014-Sep-11 22:33N 37°48' E 024°34'89 1.8
2014-Sep-09 21:27N 39°10' E 025°18'1213.2
2014-Sep-09 20:33N 39°05' E 025°32'1313.2
2014-Sep-09 19:33N 38°59' E 025°47'  
Track history (hours):
 
Tides and Currents Weather Stations Pressure Air Temp Water Temp Dewpoint Dewpoint Depression Visibility Wind Speed Wind Dir Waves Ship Positions

Ital Oriente

Last reported at 2014-Sep-19 19:33 UTC. Time now 2014-Sep-19 19:52 UTC.
Position N 37°52' E 023°31'.

Length 222 m; draft 7.5 m.

Type: Cargo ship. MMSI: 636091278.

Date/timePositionNaut miles runAvg speedWind from/ knotsBaromVisibWave heightAir tempDewpointWater temp
2014-Sep-19 19:33N 37°52' E 023°31'0 0.0
2014-Sep-19 18:33N 37°52' E 023°31'0 0.0
2014-Sep-19 17:33N 37°52' E 023°31'0 0.0
2014-Sep-19 16:33N 37°52' E 023°31'0 0.0
2014-Sep-19 15:33N 37°52' E 023°31'0 0.0
2014-Sep-19 14:33N 37°52' E 023°31'0 0.1
2014-Sep-19 13:33N 37°52' E 023°32'0 0.1
2014-Sep-19 12:33N 37°52' E 023°32'0 0.1
2014-Sep-19 11:33N 37°52' E 023°31'0 0.0
2014-Sep-19 10:33N 37°52' E 023°31'0 0.1
2014-Sep-19 09:33N 37°52' E 023°32'0 0.0
2014-Sep-19 08:33N 37°52' E 023°32'0 0.0
2014-Sep-19 07:33N 37°52' E 023°32'0 0.0
2014-Sep-19 06:33N 37°52' E 023°32'3 2.7
2014-Sep-19 05:34N 37°52' E 023°35'5 4.7
2014-Sep-19 04:31N 37°57' E 023°35'0 0.0
2014-Sep-19 03:31N 37°57' E 023°35'0 0.0
2014-Sep-19 02:31N 37°57' E 023°35'0 0.0
2014-Sep-19 01:31N 37°57' E 023°35'0 0.0
2014-Sep-19 00:31N 37°57' E 023°35'0 0.0
2014-Sep-18 23:31N 37°57' E 023°35'0 0.0
2014-Sep-18 22:31N 37°57' E 023°35'0 0.0
2014-Sep-18 21:31N 37°57' E 023°35'0 0.0
2014-Sep-18 20:31N 37°57' E 023°35'0 0.0
2014-Sep-18 19:31N 37°57' E 023°35'0 0.0
2014-Sep-18 18:31N 37°57' E 023°35'0 0.0
2014-Sep-18 17:31N 37°57' E 023°35'0 0.0
2014-Sep-18 16:31N 37°57' E 023°35'0 0.0
2014-Sep-18 15:31N 37°57' E 023°35'0 0.0
2014-Sep-18 14:34N 37°57' E 023°35'5 5.3
2014-Sep-18 13:34N 37°52' E 023°35'4 3.6
2014-Sep-18 12:33N 37°51' E 023°30'0 0.0
2014-Sep-18 11:33N 37°51' E 023°30'0 0.0
2014-Sep-18 10:33N 37°51' E 023°30'0 0.1
2014-Sep-18 09:33N 37°51' E 023°30'0 0.1
2014-Sep-18 08:33N 37°51' E 023°30'0 0.0
2014-Sep-18 07:33N 37°51' E 023°30'0 0.0
2014-Sep-18 06:33N 37°51' E 023°30'0 0.0
2014-Sep-18 05:33N 37°51' E 023°30'0 0.0
2014-Sep-18 04:33N 37°51' E 023°30'0 0.0
2014-Sep-18 03:33N 37°51' E 023°30'0 0.0
2014-Sep-18 02:33N 37°51' E 023°30'0 0.0
2014-Sep-18 01:33N 37°51' E 023°30'0 0.0
2014-Sep-18 00:33N 37°51' E 023°30'0 0.0
2014-Sep-17 23:33N 37°51' E 023°30'0 0.0
2014-Sep-17 22:33N 37°51' E 023°30'0 0.0
2014-Sep-17 21:33N 37°51' E 023°30'0 0.1
2014-Sep-17 20:33N 37°51' E 023°30'0 0.0
2014-Sep-17 19:33N 37°51' E 023°30'0 0.0
2014-Sep-17 18:33N 37°51' E 023°30'2 2.4
2014-Sep-17 17:33N 37°51' E 023°33'9 9.4
2014-Sep-17 16:33N 37°45' E 023°43'1111.0
2014-Sep-17 15:33N 37°35' E 023°48'4611.3
2014-Sep-17 11:28N 36°51' E 023°33'  
2014-Sep-12 09:33N 36°25' E 022°57'1310.9
2014-Sep-12 08:24N 36°23' E 023°12'16 8.7
2014-Sep-12 06:31N 36°33' E 023°29'1916.2
2014-Sep-12 05:20N 36°51' E 023°35'911.6
2014-Sep-12 04:33N 36°59' E 023°41'1111.2
2014-Sep-12 03:33N 37°08' E 023°49'1111.3
2014-Sep-12 02:33N 37°18' E 023°56'1111.1
2014-Sep-12 01:33N 37°27' E 024°04'2210.8
2014-Sep-11 23:33N 37°44' E 024°21'1110.8
2014-Sep-11 22:33N 37°48' E 024°34'89 1.8
2014-Sep-09 21:27N 39°10' E 025°18'1213.2
2014-Sep-09 20:33N 39°05' E 025°32'1313.2
2014-Sep-09 19:33N 38°59' E 025°47'  

Dump ship's entire track history